Tracking 29528 objects as of 12-Sep-2024
HD Live streaming from Space Station
objects crossing your sky now

FENGYUN 1C DEB

Track FENGYUN 1C DEB now!
10-day predictions


NORAD ID: 30297
Int'l Code: 1999-025ZJ
Perigee: 561.2 km
Apogee: 1,199.7 km
Inclination: 98.8 °
Period: 102.4 minutes
Semi major axis: 7251 km
RCS: 0.0363 m2 (small)
Launch date: May 10, 1999
Source: People's Republic of China (PRC)
Launch site: Taiyaun Space Center, China (TSC)

Note: This is SATELLITE DEBRIS
Your satellite tracking list
Your tracking list is empty




NASA's NSSDC Master Catalog

Two Line Element Set (TLE):
1 30297U 99025ZJ  24256.36070324  .00046468  00000-0  11656-1 0  9998
2 30297  98.7708 207.1048 0440231 341.0839 170.1663 14.05930063886980
Source of the keplerian elements: AFSPC